Location: Plum
(40.5000°N, 79.7500°W)
Time: 16:47:32
(UTC-05:00)

Daily predictions for brighter satellites

Satellite Brightness Start Highest point End
(mag) Time Altitude Azimuth Time Altitude Azimuth Time Altitude Azimuth
Cosmos 1125 Rocket 3.7 17:16:38 10° SSW 17:21:56 86° WNW 17:27:17 10° NNE
Cosmos 2341 Rocket 4.0 17:17:25 10° N 17:23:38 74° E 17:29:50 10° SSE
ATLAS 2AS CENTAUR R/B 3.4 17:17:18 10° NNW 17:24:56 42° NE 17:32:09 10° ESE
Thor Agena Rocket 3.8 17:20:18 10° NNE 17:25:23 52° E 17:30:29 10° S
IRS-1A Rocket 4.4 17:21:32 10° SSE 17:27:02 82° WSW 17:32:34 10° NNW
Cosmos 1269 Rocket 4.1 17:22:57 10° NNW 17:28:17 88° WSW 17:33:36 10° SSE
Hubble Space Telescope 3.6 17:33:56 10° SSW 17:35:24 12° SSW 17:36:51 10° S
Cosmos 1536 2.9 17:31:53 10° N 17:35:58 87° W 17:40:02 10° S
Cosmos 2263 Rocket 3.8 17:33:43 10° WSW 17:38:37 30° WNW 17:43:34 10° N
Cosmos 2251 Rocket 4.1 17:34:11 10° N 17:39:07 36° ENE 17:43:59 10° SE
ISS -3.3 17:43:12 10° SW 17:46:30 81° NW 17:49:08 15° NE
Cosmos 1633 4.3 17:45:15 10° NNW 17:48:33 35° W 17:51:49 10° SSW
MSX 3.8 17:47:05 10° SSE 17:52:44 60° ENE 17:58:23 10° N
SL-27 R/B 2.7 17:51:30 10° N 17:55:05 50° ENE 17:58:38 10° SE
Cosmos 1812 3.0 17:52:31 10° SSE 17:56:10 43° E 17:59:51 10° NNE
Cosmos 1346 Rocket 4.1 17:53:36 10° SE 17:56:26 19° E 17:57:08 18° ENE
SJ-12 4.3 17:54:03 10° S 17:58:07 68° W 18:02:13 10° NNW
CZ-4 R/B 2.4 17:56:29 10° S 18:00:35 52° W 18:04:40 10° NNW
COSMO-SKYMED 1 3.0 17:58:03 10° NNE 18:02:10 41° E 18:06:16 10° S
Cosmos 1544 Rocket 3.5 17:58:51 10° N 18:03:19 74° E 18:07:46 10° SSE
Cosmos 158 Rocket 4.4 17:58:23 10° NNW 18:03:44 69° WSW 18:08:56 10° S
Cosmos 1844 Rocket 2.8 17:59:05 10° SSW 18:04:40 81° WNW 18:10:20 10° NNE
Cosmos 1975 Rocket 4.0 18:01:45 10° SSW 18:05:55 47° W 18:10:07 10° N
GEOS 3 Rocket 3.7 18:01:39 10° ESE 18:06:34 50° NE 18:11:30 10° NNW
CZ-2C R/B 2.9 18:02:21 10° S 18:07:14 65° W 18:12:18 10° NNW
Cosmos 1238 Rocket 1.9 18:08:16 10° S 18:11:14 83° E 18:13:47 13° N
MONITOR-E 4.1 18:08:38 10° SSE 18:11:48 76° ENE 18:15:01 10° N
Meteor 1-12 Rocket 4.3 18:06:33 10° N 18:12:18 63° ENE 18:18:06 10° SSE
Cosmos 1844 3.6 18:09:21 10° SSW 18:14:55 90° WNW 18:20:25 10° NNE
CZ-3A R/B 4.0 18:10:46 10° W 18:15:49 52° NNW 18:35:18 15° NE
Cosmos 1975 3.0 18:13:10 10° N 18:17:09 49° E 18:21:04 10° SSE
OPS 8737 4.1 18:14:22 10° SSW 18:17:44 78° SE 18:18:56 35° NE
BREEZE-M DEB (TANK) 3.3 18:16:28 10° WNW 18:18:14 21° NNW 18:18:35 20° N
Cosmos 1536 Rocket 3.5 18:17:55 10° S 18:22:21 77° E 18:26:51 10° N
COSMOS 2441 4.4 18:17:57 10° SSE 18:22:49 85° WSW 18:27:44 10° NNW
SL-24 DEB 4.2 18:22:50 10° N 18:27:37 90° SSE 18:32:19 10° S
YAOGAN 1 4.2 18:25:14 10° SSW 18:29:14 37° W 18:33:16 10° NNW
SKYMED 3 4.5 18:27:56 10° NNE 18:32:15 89° WNW 18:36:35 10° SSW
Cosmos 2278 Rocket 2.1 18:27:00 10° SSW 18:32:38 78° ESE 18:36:35 21° NNE
IDEFIX/ARIANE 42P 4.4 18:37:41 10° SSW 18:42:18 32° W 18:46:56 10° NNW
Meteor 1-13 Rocket 4.3 18:37:18 10° S 18:42:47 56° E 18:46:05 24° NNE
Cosmos 1484 Rocket 3.6 18:42:34 10° S 18:46:14 49° W 18:49:53 10° NNW
Okean 1-7 Rocket 3.9 18:42:54 10° SSE 18:46:43 47° ESE 18:46:43 47° ESE
OTV 4 2.7 18:47:03 10° WSW 18:49:18 19° SSW 18:49:39 19° S
USA 234 4.5 18:45:29 17° NNE 18:49:27 31° NNW 18:55:02 10° W
CZ-3B DEB 2.8 18:45:56 10° WSW 18:50:00 59° NNW 18:55:16 25° NE
SKYMED 2 4.2 18:46:12 11° N 18:50:16 56° WNW 18:54:30 10° SSW
Cosmos 921 Rocket 4.4 18:46:30 10° S 18:48:30 25° SSE 18:48:30 25° SSE
Cosmos 1455 Rocket 4.5 18:48:51 10° NNW 18:52:57 39° W 18:57:02 10° SSW
Timation 2 Rocket 4.2 18:50:01 10° NNW 18:56:45 58° ENE 18:59:44 34° SE
Cosmos 2082 Rocket 2.5 18:52:57 10° NNW 18:57:45 46° NE 18:57:45 46° NE
Cosmos 1833 Rocket 3.4 18:59:01 10° NNW 19:02:46 36° NNE 19:02:46 36° NNE
BREEZE-M DEB (TANK) 4.3 19:00:16 10° WNW 19:05:12 27° N 19:05:27 26° N
NOSS 3-3 (A) 4.1 19:00:35 10° SW 19:06:45 72° NW 19:09:41 35° NNE
NOSS 3-3 (C) 4.1 19:00:41 10° SW 19:06:51 72° NW 19:09:45 35° NNE
SL-8 R/B 3.6 19:04:15 10° WSW 19:09:01 76° NNW 19:09:02 76° NNW
Cosmos 1500 4.5 19:08:39 10° NNW 19:12:14 40° W 19:15:50 10° SSW
Cosmos 2239 Rocket 4.3 19:06:16 10° N 19:12:30 75° E 19:18:38 10° SSE
Meteor 1-28 Rocket 4.3 19:15:04 44° WNW 19:15:06 44° WNW 19:18:42 10° SW
NOAA 12 4.3 19:10:08 10° S 19:15:23 68° WSW 19:20:40 10° NNW
METEOR-M 4.1 19:10:49 10° S 19:16:09 80° WSW 19:21:32 10° NNW
ATLAS 2AS CENTAUR R/B 3.8 19:08:28 10° NW 19:16:09 51° WSW 19:23:16 10° S
Cosmos 1821 Rocket 3.8 19:14:44 10° N 19:20:52 83° E 19:26:57 10° S
ISS -0.3 19:21:05 10° WNW 19:21:49 13° NW 19:21:49 13° NW
ATLAS 3B CENTAUR R/B 4.0 19:48:29 10° WSW 19:59:33 32° SSW 20:00:10 32° S
FALCON 9 R/B 3.8 20:15:51 10° W 20:26:28 44° SW 20:26:28 44° SW
